This demonstration page uses our WeatherBlox Daily Observations layout. Learn more.

Left ArrowRight Arrow

47.50024, -111.30081

Hourly Observations for January 13, 2022

Temp ( °F °C ) Dew Point ( °F °C ) Humidity (%) Winds ( mph kmh ) Pressure ( in mb ) Visibility ( mi km ) Precip ( " mm )
12:53 am 00:53 Clear 50 10 33 0.6 52 52 SW 21 33 30.11 1020 10 16 0.00 0.00
1:53 am 01:53 Clear 49 9.4 31 -0.6 50 50 SW 23 37 30.10 1019 10 16 0.00 0.00
2:53 am 02:53 Clear 49 9.4 29 -1.7 46 46 SW 21 33 30.10 1019 10 16 0.00 0.00
3:53 am 03:53 Clear 49 9.4 27 -2.8 43 43 SW 22 35 30.09 1019 10 16 0.00 0.00
4:53 am 04:53 Clear 47 8.3 26 -3.3 44 44 SW 20 31 30.10 1019 10 16 0.00 0.00
5:53 am 05:53 Clear 48 8.9 24 -4.4 39 39 SW 17 28 30.08 1019 10 16 0.00 0.00
6:53 am 06:53 Clear 46 7.8 23 -5 40 40 SW 15 24 30.07 1018 10 16 0.00 0.00
7:53 am 07:53 Clear 47 8.3 22 -5.6 37 37 SW 16 26 30.04 1017 10 16 0.00 0.00
8:53 am 08:53 Sunny 45 7.2 23 -5 42 42 SSW 20 31 30.02 1017 10 16 0.00 0.00
9:53 am 09:53 Sunny 45 7.2 23 -5 42 42 SSW 16 26 30.00 1016 10 16 0.00 0.00
10:53 am 10:53 Mostly Cloudy 47 8.3 21 -6.1 36 36 SW 21 33 29.99 1016 10 16 0.00 0.00
11:53 am 11:53 Mostly Cloudy 49 9.4 20 -6.7 32 32 WSW 17 28 29.95 1014 10 16 0.00 0.00
12:53 pm 12:53 Sunny 49 9.4 20 -6.7 32 32 SW 20 31 29.93 1014 10 16 0.00 0.00
1:53 pm 13:53 Sunny 50 10 19 -7.2 29 29 SW 15 24 29.91 1013 10 16 0.00 0.00
2:53 pm 14:53 Mostly Cloudy 53 11.7 20 -6.7 27 27 SW 14 22 29.90 1012 10 16 0.00 0.00
3:53 pm 15:53 Partly Cloudy 49 9.4 21 -6.1 33 33 SW 6 9 29.96 1015 10 16 0.00 0.00
4:53 pm 16:53 Sunny 48 8.9 22 -5.6 36 36 WSW 9 15 29.99 1016 10 16 0.00 0.00
5:53 pm 17:53 Clear 39 3.9 23 -5 53 53 SW 9 15 30.03 1017 10 16 0.00 0.00
6:53 pm 18:53 Mostly Clear 41 5 20 -6.7 43 43 WSW 9 15 30.07 1018 10 16 0.00 0.00
7:53 pm 19:53 Clear 39 3.9 22 -5.6 50 50 NW 8 13 30.13 1020 10 16 0.00 0.00
8:53 pm 20:53 Cloudy 40 4.4 26 -3.3 58 58 NW 22 35 30.16 1021 10 16 0.00 0.00
9:53 pm 21:53 Cloudy 37 2.8 29 -1.7 73 73 NNW 17 28 30.22 1024 10 16 0.00 0.00
10:53 pm 22:53 Cloudy 36 2.2 29 -1.7 76 76 N 12 19 30.29 1026 10 16 0.00 0.00
11:05 pm 23:05 Cloudy 35 1.7 29 -1.7 78 78 NNW 7 11 30.33 1027 10 16 0.00 0.00
11:48 pm 23:48 Cloudy 34 1 28 -2 81 81 NNW 16 26 30.35 1028 10 16 0.00 0.00
11:53 pm 23:53 Cloudy 34 1.1 29 -1.7 82 82 NNW 14 22 30.32 1027 10 16 0.00 0.00

Powered by AerisWeather